Regional Weather Roundup
Issued by NWS

Home | Current Version | Previous Version | Graphics & Text | Print | Product List | Glossary On
Versions: 1 2 3 4 5 6 7 8 9 10 11 12 13 14 15 16 17 18 19 20 21 22 23 24 25 26 27 28 29 30 31 32 33 34 35 36 37 38 39 40 41 42 43 44 45 46 47 48 49 50
000
ASUS43 KLSX 270907
RWRMO

WEATHER SUMMARY FOR MISSOURI
NATIONAL WEATHER SERVICE SPRINGFIELD MO
400 AM CDT WED AUG 27 2014

NOTE: "FAIR" INDICATES FEW OR NO CLOUDS BELOW 12,000 FEET WITH NO
       SIGNIFICANT WEATHER AND/OR OBSTRUCTIONS TO VISIBILITY.
       CURRENT SKY AND/OR WEATHER CONDITIONS ARE NOT AVAILABLE FOR
       CHILLICOTHE AND FARMINGTON.

MOZ001>031-035>038-043-044-053-054-271000-
...NORTHERN AND WESTERN MISSOURI...

CITY           SKY/WX    TMP DP  RH WIND       PRES   REMARKS
KANSAS CTY INT MOCLDY    76  72  87 SE12      30.08S
KANSAS C DTWN  MOCLDY    77  72  84 E6        30.06F
LEE`S SUMMIT   CLEAR     73  72  96 SE5       30.09F
ST JOSEPH      MOCLDY    75  71  87 SE7       30.06F
CHILLICOTHE      N/A     72  68  87 CALM      30.09F
KIRKSVILLE     CLEAR     69  67  93 NE6       30.11S

$$
MOZ066>068-077>081-088>096-101>105-271000-
...SOUTHWEST MISSOURI...

CITY           SKY/WX    TMP DP  RH WIND       PRES   REMARKS
SPRINGFIELD    CLEAR     74  67  78 S9        30.10S
JOPLIN         CLEAR     75  66  73 SE5       30.09S

$$
MOZ032>034-039>042-045>050-055>058-069>072-271000-
...CENTRAL MISSOURI...

CITY           SKY/WX    TMP DP  RH WIND       PRES   REMARKS
COLUMBIA       CLEAR     74  73  97 CALM      30.08F
JEFFERSON CITY CLEAR     72  69  90 CALM      30.07F
ROLLA          CLEAR     70  66  87 SW7       30.08F
SEDALIA        CLEAR     72  68  87 CALM      30.09F
WHITEMAN AFB   CLEAR     72  55  56 SE3       30.08S
OSAGE BEACH    CLEAR     70  64  83 CALM      30.09S

$$
MOZ051-052-059>065-271000-
...EAST CENTRAL MISSOURI...

CITY           SKY/WX    TMP DP  RH WIND       PRES   REMARKS
ST LOUIS INTL  PTCLDY    76  69  79 W6        30.07F
SPIRIT OF STL  CLEAR     73  69  87 CALM      30.06F
ST CHARLES     PTCLDY    72  69  90 NW5       30.06F

$$
MOZ072>076-082>087-097>100-106>115-271000-
...SOUTH CENTRAL AND SOUTHEAST MISSOURI...

CITY           SKY/WX    TMP DP  RH WIND       PRES   REMARKS
CAPE GIRARDEAU CLEAR     72  70  93 CALM      30.06R
FARMINGTON     CLEAR     72  68  88 CALM      30.11S
POPLAR BLUFF   CLEAR     72  69  90 CALM      30.05F FOG
WEST PLAINS    CLEAR     71  67  87 CALM      30.12S

$$


USA.gov is the U.S. government's official web portal to all federal, state and local government web resources and services.